CUBEBUG-2 (LO-74) (39440 NORAD) Tracking and Keplerian Element Data

This shows tracking and keplerian element data for the satellite.

Feedback or suggestion? Click here.




ElementValue
Catalog39440
NameCUBEBUG-2 (LO-74)
Epoch Orbit60272
Epoch Day34.81796668
Epoch Year2025
RAAN340.5193
Inclination97.8375
Eccentricity0.006286
Argument of Perigee233.6621
Mean Anonmoly125.8783
Mean Motion14.8799512
Decay Rate7.103E-05
L11 39440U 13066AA 25034.81796668 .00007103 00000+0 75211-3 0 9990
L22 39440 97.8375 340.5193 0062860 233.6621 125.8783 14.87995120602728



Live tracking and technical data element details for CUBEBUG-2 (LO-74) (NORAD 39440). CUBEBUG-2 (LO-74) can be tracked NOW for your location showing map with azimuth and elevation plus other details from your city location.







IsCatalogInMostPopularTable: catalog: 39440, numindb: 709
Update: records affected: 1



GetName: 39440 CUBEBUG-2 (LO-74)

Hit Count: updated at: Fri, 18 Jul 2025 16:36:59 GMT